This is the latest recevied weather packets stored in our database for station/object DL1MMS-10. If no packets are shown the sender has not sent any weather packets the latest 10 day(s).
| Time | Temp. | Humidity | Pressure | Rain* | Wind** | Luminosity | Snow |
|---|---|---|---|---|---|---|---|
| 1777545662 | 22.78° C | 25% | 1024.6 hPa | 0 mm | - | - | - |
| 1777545362 | 22.78° C | 25% | 1024.8 hPa | 0 mm | - | - | - |
| 1777545061 | 22.78° C | 26% | 1024.6 hPa | 0 mm | - | - | - |
| 1777544761 | 21.11° C | 28% | 1024.7 hPa | 0 mm | - | - | - |
| 1777544461 | 20.56° C | 29% | 1024.7 hPa | 0 mm | - | - | - |
| 1777544160 | 20° C | 31% | 1024.7 hPa | 0 mm | - | - | - |
| 1777543860 | 18.33° C | 33% | 1024.6 hPa | 0 mm | - | - | - |
| 1777543560 | 15.56° C | 39% | 1024.6 hPa | 0 mm | - | - | - |
| 1777543259 | 13.33° C | 39% | 1024.7 hPa | 0 mm | - | - | - |
| 1777542959 | 13.33° C | 41% | 1024.7 hPa | 0 mm | - | - | - |
| 1777542659 | 12.78° C | 41% | 1024.7 hPa | 0 mm | - | - | - |
| 1777542359 | 12.78° C | 42% | 1024.6 hPa | 0 mm | - | - | - |
| 1777542058 | 12.22° C | 42% | 1024.6 hPa | 0 mm | - | - | - |
| 1777541758 | 11.67° C | 43% | 1024.7 hPa | 0 mm | - | - | - |
| 1777541458 | 11.11° C | 44% | 1024.8 hPa | 0 mm | - | - | - |
| 1777541158 | 11.11° C | 43% | 1024.8 hPa | 0 mm | - | - | - |
| 1777540857 | 11.11° C | 44% | 1024.9 hPa | 0 mm | - | - | - |
| 1777540557 | 10.56° C | 45% | 1024.8 hPa | 0 mm | - | - | - |
| 1777540257 | 10.56° C | 45% | 1024.8 hPa | 0 mm | - | - | - |
| 1777539956 | 10° C | 45% | 1024.8 hPa | 0 mm | - | - | - |
| 1777539656 | 10° C | 45% | 1024.8 hPa | 0 mm | - | - | - |
| 1777539356 | 10° C | 45% | 1024.8 hPa | 0 mm | - | - | - |
| 1777539056 | 9.44° C | 46% | 1024.8 hPa | 0 mm | - | - | - |
| 1777538755 | 9.44° C | 47% | 1024.9 hPa | 0 mm | - | - | - |
| 1777538455 | 8.89° C | 47% | 1024.9 hPa | 0 mm | - | - | - |
* Rain latest hour (hover to see other rain measurements)
** Current wind speed in m/s (hover to see current wind gust speed)